TimeCST,TemperatureF,Dew PointF,Humidity,Sea Level PressureIn,VisibilityMPH,Wind Direction,Wind SpeedMPH,Gust SpeedMPH,PrecipitationIn,Events,Conditions,WindDirDegrees,DateUTC
12:25 AM,-14.8,-23.8,64,30.38,10.0,NNW,9.2,-,N/A,,Overcast,330,2013-01-21 06:25:00
12:55 AM,-14.6,-23.8,63,30.37,10.0,NW,10.4,-,N/A,,Overcast,320,2013-01-21 06:55:00
1:05 AM,-14.8,-23.8,64,30.37,10.0,NW,11.5,-,N/A,,Mostly Cloudy,320,2013-01-21 07:05:00
1:09 AM,-14.8,-23.8,64,30.37,10.0,NW,11.5,-,N/A,,Scattered Clouds,320,2013-01-21 07:09:00
1:55 AM,-15.3,-24.5,63,30.37,10.0,NW,9.2,-,N/A,,Clear,320,2013-01-21 07:55:00
2:55 AM,-16.2,-25.4,63,30.37,10.0,NW,10.4,-,N/A,,Clear,320,2013-01-21 08:55:00
3:55 AM,-16.4,-25.6,63,30.36,10.0,NW,10.4,-,N/A,,Clear,320,2013-01-21 09:55:00
4:55 AM,-16.6,-25.6,64,30.34,10.0,NW,11.5,-,N/A,,Clear,320,2013-01-21 10:55:00
5:55 AM,-17.0,-25.8,64,30.34,10.0,NW,11.5,-,N/A,,Clear,310,2013-01-21 11:55:00
6:55 AM,-17.0,-25.8,64,30.33,10.0,NW,11.5,-,N/A,,Clear,320,2013-01-21 12:55:00
7:55 AM,-17.0,-25.6,65,30.33,10.0,NW,12.7,-,N/A,,Clear,310,2013-01-21 13:55:00
8:55 AM,-16.4,-25.4,64,30.34,10.0,WNW,9.2,-,N/A,,Clear,300,2013-01-21 14:55:00
9:20 AM,-16.6,-25.6,64,30.34,10.0,WNW,9.2,-,N/A,,Scattered Clouds,300,2013-01-21 15:20:00
9:25 AM,-14.8,-23.8,64,30.34,10.0,WNW,9.2,-,N/A,,Mostly Cloudy,300,2013-01-21 15:25:00
9:27 AM,-14.8,-23.8,64,30.33,10.0,NW,11.5,-,N/A,,Mostly Cloudy,310,2013-01-21 15:27:00
9:35 AM,-14.8,-23.8,64,30.34,10.0,NW,10.4,-,N/A,,Mostly Cloudy,310,2013-01-21 15:35:00
9:37 AM,-14.8,-23.8,64,30.34,10.0,NW,11.5,-,N/A,,Scattered Clouds,310,2013-01-21 15:37:00
9:55 AM,-13.9,-24.0,61,30.33,10.0,NW,10.4,-,N/A,,Partly Cloudy,310,2013-01-21 15:55:00
10:05 AM,-13.0,-23.8,59,30.33,10.0,NW,12.7,-,N/A,,Partly Cloudy,320,2013-01-21 16:05:00
10:55 AM,-11.2,-21.8,59,30.34,10.0,NNW,12.7,-,N/A,,Clear,330,2013-01-21 16:55:00
10:59 AM,-11.2,-22.0,59,30.34,10.0,NNW,17.3,-,N/A,,Partly Cloudy,330,2013-01-21 16:59:00
11:55 AM,-10.8,-21.5,59,30.33,10.0,NNW,15.0,23.0,N/A,,Clear,330,2013-01-21 17:55:00
12:55 PM,-9.9,-20.4,60,30.32,10.0,NNW,16.1,-,N/A,,Partly Cloudy,340,2013-01-21 18:55:00
1:55 PM,-9.4,-19.7,61,30.30,10.0,NNW,16.1,-,N/A,,Partly Cloudy,340,2013-01-21 19:55:00
2:05 PM,-9.4,-20.2,59,30.30,10.0,NNW,15.0,-,N/A,,Scattered Clouds,330,2013-01-21 20:05:00
2:14 PM,-9.4,-20.2,59,30.31,10.0,NNW,15.0,-,N/A,,Scattered Clouds,340,2013-01-21 20:14:00
2:55 PM,-9.6,-20.0,60,30.32,10.0,North,15.0,-,N/A,,Clear,350,2013-01-21 20:55:00
3:55 PM,-9.8,-20.4,60,30.32,10.0,NNW,9.2,-,N/A,,Clear,330,2013-01-21 21:55:00
4:55 PM,-11.0,-20.9,62,30.32,10.0,NNW,9.2,-,N/A,,Clear,330,2013-01-21 22:55:00
5:55 PM,-13.9,-22.2,66,30.32,10.0,NW,6.9,-,N/A,,Clear,320,2013-01-21 23:55:00
6:55 PM,-16.4,-24.0,69,30.31,10.0,WNW,8.1,-,N/A,,Clear,300,2013-01-22 00:55:00
7:55 PM,-16.6,-24.0,69,30.32,10.0,WNW,6.9,-,N/A,,Clear,300,2013-01-22 01:55:00
8:55 PM,-17.1,-24.5,69,30.31,10.0,NW,4.6,-,N/A,,Clear,310,2013-01-22 02:55:00
9:55 PM,-16.6,-24.2,69,30.31,10.0,NW,5.8,-,N/A,,Clear,310,2013-01-22 03:55:00
10:55 PM,-13.7,-21.6,68,30.31,10.0,NNW,6.9,-,N/A,,Clear,330,2013-01-22 04:55:00
11:55 PM,-13.7,-21.6,68,30.32,10.0,NNW,5.8,-,N/A,,Clear,330,2013-01-22 05:55:00